Chippewa County International Airport
KCIU : now visible

Airfield :











YOU CAN JOIN US ON...

 
LOGIN :

Register | Disclaimer

   EN    FR    IT 

 









Legend :    VFR   Marginal VFR   IFR   Intensive IFR   Very Intensive IFR
Visi :
Ceiling :
>= 8 km
>= 3000ft
5 to 8 km
1000 to 3000 ft
1500m to 5 km
500 to 1000 ft
800 to 1500m
200 to 500 ft
< 800m
< 200 ft
Symbols :   Thunderstorms  Fog  Heavy snow  Heavy precipitations  Wind > 20 kt






- Airport Elevation : 800 ft
- IATA code : CIU


KCIU - Chippewa County International

CURRENT METAR :
  • 072056Z AUTO 11013KT 3SM -RA BR OVC028 04/03 A2969 RMK AO2 SLP059 P0000 60003 T00390028 56030

EXPIRED METARs :
  • 071956Z AUTO 12013KT 8SM -RA BKN038 OVC050 04/03 A2971 RMK AO2 SLP067 P0001 T00390028
  • 071856Z AUTO 11011KT 10SM -RA OVC065 04/03 A2974 RMK AO2 SLP075 P0002 T00440028

TAF N/A



MET'MAP, your aeronautical weather chart ! - Copyright ORBIFLY December 2007 - Disclaimer

ORBIFLY MET'MAP TEAM :

Programming & Development : Alexandra Zaïnal
Concept & original design : Baudouin d'Aumeries
Assistance for programming : Marc-Olivier Méhu
Technical & hardware support : Manuel Goepfert

Contact : metmap@orbifly.com




SOURCES & CREDITS :

   NOAA       Earth
Advisory